TimeEEST,TemperatureF,Dew PointF,Humidity,Sea Level PressureIn,VisibilityMPH,Wind Direction,Wind SpeedMPH,Gust SpeedMPH,PrecipitationIn,Events,Conditions,WindDirDegrees,DateUTC
12:20 AM,53.6,50.0,88,29.98,-9999.0,Variable,1.2,-,N/A,,Unknown,0,2012-10-11 21:20:00
12:50 AM,51.8,50.0,94,29.98,-9999.0,Variable,2.3,-,N/A,,Unknown,0,2012-10-11 21:50:00
1:20 AM,51.8,50.0,94,29.98,-9999.0,Variable,1.2,-,N/A,,Unknown,0,2012-10-11 22:20:00
1:50 AM,51.8,50.0,94,29.98,-9999.0,Variable,3.5,-,N/A,,Unknown,0,2012-10-11 22:50:00
2:20 AM,51.8,50.0,94,29.98,-9999.0,Variable,1.2,-,N/A,,Unknown,0,2012-10-11 23:20:00
2:50 AM,51.8,50.0,94,29.98,-9999.0,Variable,1.2,-,N/A,,Unknown,0,2012-10-11 23:50:00
3:00 AM,53,50,85,29.99,6,Calm,Calm,,,,,,2012-10-12 00:00:00
3:20 AM,51.8,48.2,88,29.98,-9999.0,Calm,Calm,-,N/A,,Unknown,0,2012-10-12 00:20:00
3:50 AM,51.8,48.2,88,29.98,-9999.0,Variable,2.3,-,N/A,,Unknown,0,2012-10-12 00:50:00
4:20 AM,53.6,50.0,88,29.98,-9999.0,Variable,2.3,-,N/A,,Unknown,0,2012-10-12 01:20:00
4:50 AM,51.8,50.0,94,29.98,-9999.0,Variable,1.2,-,N/A,,Unknown,0,2012-10-12 01:50:00
5:20 AM,51.8,50.0,94,29.98,-9999.0,Variable,3.5,-,N/A,,Clear,0,2012-10-12 02:20:00
5:50 AM,51.8,48.2,88,29.98,-9999.0,Calm,Calm,-,N/A,,Clear,0,2012-10-12 02:50:00
6:20 AM,50.0,48.2,94,29.98,-9999.0,Calm,Calm,-,N/A,,Clear,0,2012-10-12 03:20:00
6:50 AM,51.8,50.0,94,30.01,-9999.0,Calm,Calm,-,N/A,,Clear,0,2012-10-12 03:50:00
7:20 AM,51.8,50.0,94,30.01,-9999.0,Calm,Calm,-,N/A,,Clear,0,2012-10-12 04:20:00
7:50 AM,53.6,51.8,94,30.01,-9999.0,Calm,Calm,-,N/A,,Clear,0,2012-10-12 04:50:00
8:20 AM,55.4,51.8,88,30.01,-9999.0,Calm,Calm,-,N/A,,Clear,0,2012-10-12 05:20:00
8:50 AM,59.0,57.2,94,30.01,-9999.0,Calm,Calm,-,N/A,,Clear,0,2012-10-12 05:50:00
9:00 AM,59,56,88,30.02,6,Calm,Calm,,,,Scattered Clouds,,2012-10-12 06:00:00
9:20 AM,62.6,59.0,88,30.01,-9999.0,Calm,Calm,-,N/A,,Clear,0,2012-10-12 06:20:00
9:50 AM,68.0,60.8,78,30.01,-9999.0,Calm,Calm,-,N/A,,Clear,0,2012-10-12 06:50:00
10:20 AM,71.6,59.0,64,30.01,-9999.0,Calm,Calm,-,N/A,,Clear,0,2012-10-12 07:20:00
10:50 AM,73.4,55.4,53,30.01,-9999.0,South,5.8,-,N/A,,Clear,190,2012-10-12 07:50:00
11:20 AM,75.2,50.0,41,30.01,-9999.0,South,5.8,-,N/A,,Clear,190,2012-10-12 08:20:00
11:50 AM,75.2,46.4,36,30.01,-9999.0,SE,9.2,-,N/A,,Clear,140,2012-10-12 08:50:00
12:20 PM,75.2,50.0,41,30.01,-9999.0,SE,9.2,-,N/A,,Clear,140,2012-10-12 09:20:00
12:50 PM,75.2,51.8,44,30.04,-9999.0,SSW,10.4,-,N/A,,Clear,200,2012-10-12 09:50:00
1:20 PM,75.2,55.4,50,30.01,-9999.0,SSW,10.4,-,N/A,,Clear,200,2012-10-12 10:20:00
1:50 PM,75.2,57.2,53,30.01,-9999.0,SSW,10.4,-,N/A,,Clear,200,2012-10-12 10:50:00
2:20 PM,75.2,55.4,50,30.01,-9999.0,SSW,10.4,-,N/A,,Clear,200,2012-10-12 11:20:00
2:50 PM,75.2,57.2,53,30.01,-9999.0,South,10.4,-,N/A,,Clear,170,2012-10-12 11:50:00
3:00 PM,75,57,43,30.03,6,South,10.4,,,,Clear,170,2012-10-12 12:00:00
3:20 PM,75.2,57.2,53,30.01,-9999.0,South,10.4,-,N/A,,Clear,170,2012-10-12 12:20:00
3:50 PM,73.4,59.0,61,30.01,-9999.0,South,9.2,-,N/A,,Clear,180,2012-10-12 12:50:00
4:20 PM,73.4,57.2,57,30.01,-9999.0,South,9.2,-,N/A,,Clear,170,2012-10-12 13:20:00
4:50 PM,73.4,53.6,50,30.01,-9999.0,SSE,6.9,-,N/A,,Clear,160,2012-10-12 13:50:00
5:20 PM,71.6,53.6,53,29.98,-9999.0,SSE,8.1,-,N/A,,Clear,160,2012-10-12 14:20:00
5:50 PM,69.8,55.4,60,29.98,-9999.0,South,5.8,-,N/A,,Clear,180,2012-10-12 14:50:00
6:20 PM,68.0,57.2,68,29.98,-9999.0,South,5.8,-,N/A,,Clear,180,2012-10-12 15:20:00
6:50 PM,68.0,57.2,68,30.01,-9999.0,South,4.6,-,N/A,,Clear,180,2012-10-12 15:50:00
7:20 PM,64.4,55.4,73,30.01,-9999.0,Calm,Calm,-,N/A,,Clear,0,2012-10-12 16:20:00
7:50 PM,62.6,55.4,77,30.01,-9999.0,Calm,Calm,-,N/A,,Clear,0,2012-10-12 16:50:00
8:20 PM,59.0,53.6,82,30.01,-9999.0,Calm,Calm,-,N/A,,Clear,0,2012-10-12 17:20:00
8:50 PM,59.0,53.6,82,30.01,-9999.0,Calm,Calm,-,N/A,,Clear,0,2012-10-12 17:50:00
9:00 PM,59,54,77,30.01,6,Calm,Calm,,,,Scattered Clouds,,2012-10-12 18:00:00
10:20 PM,57.2,53.6,88,30.01,-9999.0,Variable,1.2,-,N/A,,Unknown,0,2012-10-12 19:20:00
10:50 PM,57.2,53.6,88,30.01,-9999.0,Variable,3.5,-,N/A,,Unknown,0,2012-10-12 19:50:00
11:20 PM,57.2,53.6,88,30.01,-9999.0,Variable,2.3,-,N/A,,Unknown,0,2012-10-12 20:20:00
11:50 PM,59.0,53.6,82,30.01,-9999.0,Calm,Calm,-,N/A,,Clear,0,2012-10-12 20:50:00